| time (UTC) | temp F | wind direction | speed MPH | gust MPH | rain 1hr in | rain 24hr in | rain mn in | humidity % | barometer mb |
| 20260831191139 | 89 | 86 | 5.0 | 9.0 | 0.00 | 2.02 | 0.01 | 73 | 1016.0 |
| 20260831190636 | 89 | 81 | 4.0 | 11.0 | 0.00 | 2.02 | 0.01 | 74 | 1015.9 |
| 20260831190233 | 89 | 108 | 6.0 | 11.0 | 0.00 | 2.02 | 0.01 | 73 | 1015.8 |
| 20260831190130 | 89 | 108 | 6.0 | 11.0 | 0.00 | 2.02 | 0.01 | 73 | 1015.8 |
| 20260831185659 | 89 | 108 | 4.0 | 10.0 | 0.00 | 2.02 | 0.01 | 74 | 1015.8 |
| 20260831185216 | 89 | 80 | 5.0 | 10.0 | 0.00 | 2.02 | 0.01 | 74 | 1016.1 |
| 20260831184630 | 89 | 158 | 5.0 | 10.0 | 0.00 | 2.02 | 0.01 | 74 | 1016.2 |
| 20260831184208 | 89 | 115 | 5.0 | 11.0 | 0.00 | 2.02 | 0.01 | 73 | 1016.3 |
| 20260831183643 | 89 | 98 | 5.0 | 11.0 | 0.00 | 2.02 | 0.01 | 73 | 1016.5 |
| 20260831183220 | 89 | 125 | 7.0 | 11.0 | 0.00 | 2.02 | 0.01 | 73 | 1016.6 |
| 20260831182636 | 89 | 131 | 8.0 | 11.0 | 0.00 | 2.02 | 0.01 | 72 | 1016.5 |
| 20260831182215 | 89 | 104 | 6.0 | 10.0 | 0.00 | 2.02 | 0.01 | 72 | 1016.7 |
| 20260831181632 | 89 | 80 | 5.0 | 9.0 | 0.00 | 2.02 | 0.01 | 73 | 1016.7 |
| 20260831181130 | 89 | 115 | 4.0 | 10.0 | 0.00 | 2.02 | 0.01 | 74 | 1016.8 |
| 20260831180648 | 89 | 101 | 5.0 | 10.0 | 0.00 | 2.02 | 0.01 | 73 | 1016.8 |
| 20260831180225 | 89 | 107 | 5.0 | 9.0 | 0.00 | 2.02 | 0.01 | 73 | 1017.0 |
| 20260831175630 | 89 | 119 | 4.0 | 8.0 | 0.00 | 2.02 | 0.01 | 75 | 1016.9 |
| 20260831175207 | 89 | 123 | 5.0 | 8.0 | 0.00 | 2.02 | 0.01 | 74 | 1016.9 |
| 20260831174704 | 89 | 106 | 4.0 | 9.0 | 0.00 | 2.02 | 0.01 | 75 | 1016.9 |
| 20260831174141 | 88 | 91 | 4.0 | 9.0 | 0.00 | 2.02 | 0.01 | 76 | 1017.0 |
| 20260831173659 | 89 | 88 | 6.0 | 9.0 | 0.00 | 2.02 | 0.01 | 75 | 1017.0 |
| 20260831173136 | 88 | 97 | 6.0 | 10.0 | 0.00 | 2.02 | 0.01 | 75 | 1016.9 |
| 20260831172634 | 88 | 89 | 5.0 | 10.0 | 0.00 | 2.02 | 0.01 | 77 | 1016.9 |
| 20260831172152 | 88 | 134 | 4.0 | 9.0 | 0.00 | 2.02 | 0.01 | 76 | 1016.9 |
| 20260831171748 | 88 | 81 | 4.0 | 9.0 | 0.00 | 2.02 | 0.01 | 76 | 1016.9 |
| 20260831171203 | 88 | 105 | 2.0 | 8.0 | 0.00 | 2.02 | 0.01 | 78 | 1016.9 |
| 20260831170640 | 88 | 146 | 3.0 | 7.0 | 0.00 | 2.02 | 0.01 | 79 | 1016.8 |
| 20260831170219 | 87 | 147 | 3.0 | 7.0 | 0.00 | 2.02 | 0.01 | 78 | 1016.9 |
| 20260831170137 | 87 | 147 | 3.0 | 7.0 | 0.00 | 2.02 | 0.01 | 78 | 1016.9 |
| 20260831165724 | 87 | 103 | 3.0 | 7.0 | 0.00 | 2.02 | 0.01 | 79 | 1016.9 |
| 20260831165158 | 87 | 97 | 4.0 | 6.0 | 0.00 | 2.02 | 0.01 | 79 | 1017.0 |
| 20260831164714 | 87 | 124 | 1.0 | 6.0 | 0.00 | 2.02 | 0.01 | 80 | 1017.0 |
| 20260831164632 | 87 | 124 | 1.0 | 6.0 | 0.00 | 2.02 | 0.01 | 80 | 1017.0 |
| 20260831164244 | 86 | 124 | 1.0 | 6.0 | 0.00 | 2.02 | 0.01 | 80 | 1017.1 |
| 20260831164141 | 86 | 124 | 1.0 | 6.0 | 0.00 | 2.02 | 0.01 | 80 | 1017.1 |
| 20260831163642 | 86 | 124 | 3.0 | 6.0 | 0.00 | 2.02 | 0.01 | 81 | 1017.1 |
| 20260831163153 | 86 | 124 | 0.0 | 4.0 | 0.00 | 2.02 | 0.01 | 82 | 1017.1 |
| 20260831162710 | 86 | 124 | 1.0 | 4.0 | 0.00 | 2.02 | 0.01 | 82 | 1017.0 |
| 20260831162145 | 86 | 124 | 2.0 | 4.0 | 0.00 | 2.02 | 0.01 | 84 | 1017.2 |
| 20260831161704 | 86 | 124 | 1.0 | 4.0 | 0.00 | 2.02 | 0.01 | 86 | 1017.4 |
| 20260831161200 | 85 | 124 | 2.0 | 6.0 | 0.00 | 2.02 | 0.01 | 86 | 1017.6 |
| 20260831160636 | 85 | 124 | 3.0 | 6.0 | 0.00 | 2.02 | 0.01 | 85 | 1017.6 |
| 20260831160134 | 84 | 124 | 2.0 | 5.0 | 0.00 | 2.02 | 0.01 | 87 | 1017.6 |
| 20260831155744 | 84 | 124 | 2.0 | 3.0 | 0.00 | 2.02 | 0.01 | 87 | 1017.7 |
| 20260831155701 | 84 | 124 | 2.0 | 3.0 | 0.00 | 2.02 | 0.01 | 87 | 1017.7 |
| 20260831155158 | 84 | 124 | 1.0 | 3.0 | 0.00 | 2.02 | 0.01 | 87 | 1017.8 |
| 20260831154654 | 83 | 124 | 1.0 | 4.0 | 0.00 | 2.02 | 0.01 | 88 | 1017.9 |
| 20260831154130 | 83 | 124 | 2.0 | 4.0 | 0.00 | 2.02 | 0.01 | 89 | 1017.9 |
| 20260831153646 | 83 | 124 | 0.0 | 2.0 | 0.00 | 2.02 | 0.01 | 90 | 1017.9 |
| 20260831153202 | 83 | 124 | 0.0 | 2.0 | 0.01 | 2.02 | 0.01 | 91 | 1017.9 |
| 20260831152637 | 82 | 124 | 0.0 | 0.0 | 0.01 | 2.02 | 0.01 | 91 | 1018.0 |
| 20260831152153 | 82 | 124 | 0.0 | 0.0 | 0.01 | 2.02 | 0.01 | 90 | 1018.1 |
| 20260831151630 | 81 | 124 | 0.0 | 0.0 | 0.01 | 2.02 | 0.01 | 89 | 1018.0 |
| 20260831151207 | 81 | 124 | 0.0 | 3.0 | 0.01 | 2.02 | 0.01 | 89 | 1017.8 |
| 20260831150644 | 81 | 124 | 2.0 | 3.0 | 0.01 | 2.02 | 0.01 | 88 | 1017.7 |
| 20260831150141 | 81 | 124 | 0.0 | 4.0 | 0.01 | 2.02 | 0.01 | 88 | 1017.7 |
| 20260831145649 | 81 | 124 | 0.0 | 4.0 | 0.01 | 2.02 | 0.01 | 88 | 1017.7 |
| 20260831145145 | 81 | 124 | 2.0 | 6.0 | 0.01 | 2.02 | 0.01 | 87 | 1017.6 |
| 20260831144702 | 80 | 124 | 3.0 | 6.0 | 0.01 | 2.02 | 0.01 | 87 | 1017.7 |
| 20260831144220 | 80 | 124 | 1.0 | 7.0 | 0.01 | 2.02 | 0.01 | 86 | 1017.7 |
| 20260831144138 | 80 | 124 | 1.0 | 7.0 | 0.01 | 2.02 | 0.01 | 86 | 1017.7 |
| 20260831143635 | 81 | 120 | 4.0 | 9.0 | 0.01 | 2.02 | 0.01 | 86 | 1017.7 |
| 20260831143212 | 81 | 151 | 2.0 | 9.0 | 0.00 | 2.01 | 0.00 | 86 | 1017.6 |
| 20260831142747 | 82 | 98 | 3.0 | 9.0 | 0.00 | 2.01 | 0.00 | 86 | 1017.7 |
| 20260831142142 | 83 | 142 | 4.0 | 9.0 | 0.00 | 2.01 | 0.00 | 87 | 1017.8 |
| 20260831141701 | 83 | 115 | 0.0 | 0.0 | 0.00 | 2.01 | 0.00 | 87 | 1017.6 |
| 20260831141138 | 83 | 115 | 0.0 | 0.0 | 0.00 | 2.01 | 0.00 | 87 | 1017.5 |
| 20260831140717 | 84 | 115 | 0.0 | 0.0 | 0.00 | 2.01 | 0.00 | 87 | 1017.4 |
| 20260831140152 | 84 | 115 | 0.0 | 0.0 | 0.00 | 2.01 | 0.00 | 87 | 1017.4 |
| 20260831135718 | 84 | 115 | 0.0 | 0.0 | 0.00 | 2.01 | 0.00 | 86 | 1017.4 |
| 20260831135134 | 84 | 115 | 0.0 | 0.0 | 0.00 | 2.01 | 0.00 | 87 | 1017.3 |
| 20260831134733 | 84 | 115 | 0.0 | 0.0 | 0.00 | 2.01 | 0.00 | 86 | 1017.2 |
| 20260831134650 | 84 | 115 | 0.0 | 0.0 | 0.00 | 2.01 | 0.00 | 86 | 1017.2 |
| 20260831134227 | 84 | 115 | 0.0 | 0.0 | 0.00 | 2.01 | 0.00 | 87 | 1017.2 |
| 20260831133643 | 84 | 115 | 0.0 | 0.0 | 0.00 | 2.01 | 0.00 | 88 | 1017.2 |
| 20260831133141 | 84 | 115 | 0.0 | 0.0 | 0.00 | 2.01 | 0.00 | 89 | 1017.1 |
| 20260831132638 | 83 | 115 | 0.0 | 0.0 | 0.00 | 2.01 | 0.00 | 90 | 1017.1 |
| 20260831132156 | 83 | 115 | 0.0 | 0.0 | 0.00 | 2.01 | 0.00 | 92 | 1017.0 |
| 20260831131733 | 82 | 115 | 0.0 | 0.0 | 0.00 | 2.01 | 0.00 | 92 | 1016.9 |
| 20260831131208 | 82 | 115 | 0.0 | 0.0 | 0.00 | 2.01 | 0.00 | 93 | 1016.9 |
| 20260831130725 | 81 | 115 | 0.0 | 0.0 | 0.00 | 2.01 | 0.00 | 94 | 1016.8 |
| 20260831130217 | 81 | 115 | 0.0 | 0.0 | 0.00 | 2.01 | 0.00 | 94 | 1016.7 |
| 20260831130135 | 81 | 115 | 0.0 | 0.0 | 0.00 | 2.01 | 0.00 | 94 | 1016.7 |
| 20260831125744 | 81 | 115 | 0.0 | 0.0 | 0.00 | 2.01 | 0.00 | 95 | 1016.7 |
| 20260831125640 | 81 | 115 | 0.0 | 0.0 | 0.00 | 2.01 | 0.00 | 95 | 1016.7 |
| 20260831125135 | 81 | 115 | 0.0 | 2.0 | 0.00 | 2.01 | 0.00 | 95 | 1016.5 |
| 20260831124632 | 81 | 115 | 0.0 | 2.0 | 0.00 | 2.01 | 0.00 | 95 | 1016.6 |
| 20260831124249 | 81 | 115 | 1.0 | 2.0 | 0.00 | 2.01 | 0.00 | 95 | 1016.5 |
| 20260831123644 | 80 | 115 | 0.0 | 2.0 | 0.00 | 2.01 | 0.00 | 95 | 1016.4 |
| 20260831123141 | 80 | 115 | 1.0 | 2.0 | 0.00 | 2.01 | 0.00 | 96 | 1016.4 |
| 20260831122640 | 80 | 115 | 0.0 | 0.0 | 0.00 | 2.01 | 0.00 | 96 | 1016.5 |
| 20260831122137 | 80 | 115 | 0.0 | 3.0 | 0.00 | 2.01 | 0.00 | 95 | 1016.5 |
| 20260831121714 | 80 | 115 | 0.0 | 3.0 | 0.00 | 2.01 | 0.00 | 95 | 1016.4 |
| 20260831121131 | 80 | 115 | 1.0 | 3.0 | 0.00 | 2.01 | 0.00 | 95 | 1016.4 |
| 20260831120649 | 80 | 115 | 2.0 | 3.0 | 0.00 | 2.01 | 0.00 | 95 | 1016.4 |
| 20260831120146 | 79 | 115 | 0.0 | 0.0 | 0.00 | 2.01 | 0.00 | 95 | 1016.2 |
| 20260831115715 | 79 | 115 | 0.0 | 0.0 | 0.00 | 2.01 | 0.00 | 95 | 1016.2 |
| 20260831115132 | 79 | 115 | 0.0 | 0.0 | 0.00 | 2.01 | 0.00 | 95 | 1016.2 |
| 20260831114749 | 79 | 115 | 0.0 | 0.0 | 0.00 | 2.01 | 0.00 | 95 | 1016.1 |
| 20260831114203 | 79 | 115 | 0.0 | 0.0 | 0.00 | 2.01 | 0.00 | 95 | 1016.0 |
| 20260831113659 | 79 | 115 | 0.0 | 0.0 | 0.00 | 2.01 | 0.00 | 95 | 1016.0 |
| 20260831113135 | 79 | 115 | 0.0 | 0.0 | 0.00 | 2.01 | 0.00 | 95 | 1016.0 |
| 20260831112633 | 79 | 115 | 0.0 | 0.0 | 0.00 | 2.01 | 0.00 | 95 | 1016.0 |
| 20260831112131 | 79 | 115 | 0.0 | 0.0 | 0.00 | 2.01 | 0.00 | 95 | 1015.9 |
| 20260831111749 | 79 | 115 | 0.0 | 0.0 | 0.00 | 2.01 | 0.00 | 94 | 1015.7 |
| 20260831111707 | 79 | 115 | 0.0 | 0.0 | 0.00 | 2.01 | 0.00 | 94 | 1015.7 |
| 20260831111142 | 79 | 115 | 0.0 | 0.0 | 0.00 | 2.01 | 0.00 | 94 | 1015.6 |
| 20260831110640 | 79 | 115 | 0.0 | 0.0 | 0.00 | 2.01 | 0.00 | 94 | 1015.5 |
| 20260831110158 | 79 | 115 | 0.0 | 0.0 | 0.00 | 2.01 | 0.00 | 94 | 1015.6 |
| 20260831105646 | 79 | 115 | 0.0 | 0.0 | 0.00 | 2.01 | 0.00 | 94 | 1015.5 |
| 20260831105242 | 79 | 115 | 0.0 | 0.0 | 0.00 | 2.01 | 0.00 | 94 | 1015.5 |
| 20260831104715 | 79 | 115 | 0.0 | 0.0 | 0.00 | 2.01 | 0.00 | 94 | 1015.5 |
| 20260831104149 | 79 | 115 | 0.0 | 0.0 | 0.00 | 2.01 | 0.00 | 93 | 1015.5 |
| 20260831103706 | 80 | 115 | 0.0 | 0.0 | 0.00 | 2.01 | 0.00 | 93 | 1015.5 |
| 20260831103222 | 80 | 115 | 0.0 | 0.0 | 0.00 | 2.01 | 0.00 | 93 | 1015.5 |
| 20260831102638 | 80 | 115 | 0.0 | 0.0 | 0.00 | 2.01 | 0.00 | 93 | 1015.4 |
| 20260831102216 | 80 | 115 | 0.0 | 0.0 | 0.00 | 2.01 | 0.00 | 92 | 1015.5 |
| 20260831102133 | 80 | 115 | 0.0 | 0.0 | 0.00 | 2.01 | 0.00 | 92 | 1015.5 |
| 20260831101632 | 80 | 115 | 0.0 | 0.0 | 0.00 | 2.01 | 0.00 | 92 | 1015.5 |
| 20260831101129 | 80 | 115 | 0.0 | 0.0 | 0.00 | 2.01 | 0.00 | 92 | 1015.5 |
| 20260831100647 | 80 | 115 | 0.0 | 0.0 | 0.00 | 2.01 | 0.00 | 92 | 1015.4 |
| 20260831100144 | 80 | 115 | 0.0 | 0.0 | 0.00 | 2.01 | 0.00 | 91 | 1015.4 |
| 20260831095710 | 80 | 115 | 0.0 | 0.0 | 0.00 | 2.01 | 0.00 | 91 | 1015.3 |
| 20260831095242 | 80 | 115 | 0.0 | 0.0 | 0.00 | 2.01 | 0.00 | 90 | 1015.2 |
| 20260831094716 | 80 | 115 | 0.0 | 0.0 | 0.00 | 2.01 | 0.00 | 90 | 1015.1 |
| 20260831094231 | 81 | 115 | 0.0 | 0.0 | 0.00 | 2.01 | 0.00 | 90 | 1015.0 |
| 20260831094149 | 81 | 115 | 0.0 | 0.0 | 0.00 | 2.01 | 0.00 | 90 | 1015.0 |
| 20260831093646 | 81 | 115 | 0.0 | 0.0 | 0.00 | 2.01 | 0.00 | 90 | 1015.0 |
| 20260831093224 | 81 | 115 | 0.0 | 0.0 | 0.00 | 2.01 | 0.00 | 90 | 1014.9 |
| 20260831092638 | 81 | 115 | 0.0 | 0.0 | 0.00 | 2.01 | 0.00 | 89 | 1014.9 |
| 20260831092157 | 81 | 115 | 0.0 | 0.0 | 0.00 | 2.01 | 0.00 | 89 | 1014.9 |
| 20260831091634 | 81 | 115 | 0.0 | 0.0 | 0.00 | 2.01 | 0.00 | 89 | 1015.0 |
| 20260831091132 | 81 | 115 | 0.0 | 0.0 | 0.00 | 2.01 | 0.00 | 89 | 1015.1 |
| 20260831090729 | 81 | 115 | 0.0 | 0.0 | 0.00 | 2.01 | 0.00 | 89 | 1015.1 |
| 20260831090203 | 81 | 115 | 0.0 | 0.0 | 0.00 | 2.01 | 0.00 | 89 | 1015.1 |
| 20260831085710 | 81 | 115 | 0.0 | 0.0 | 0.00 | 2.01 | 0.00 | 88 | 1015.1 |
| 20260831085146 | 81 | 115 | 0.0 | 0.0 | 0.00 | 2.01 | 0.00 | 89 | 1015.1 |
| 20260831084703 | 81 | 115 | 0.0 | 0.0 | 0.00 | 2.01 | 0.00 | 89 | 1015.0 |
| 20260831084138 | 81 | 115 | 0.0 | 0.0 | 0.00 | 2.01 | 0.00 | 89 | 1015.1 |
| 20260831083636 | 81 | 115 | 0.0 | 0.0 | 0.00 | 2.01 | 0.00 | 89 | 1015.2 |
| 20260831083134 | 81 | 115 | 0.0 | 0.0 | 0.00 | 2.01 | 0.00 | 88 | 1015.3 |
| 20260831082711 | 81 | 115 | 0.0 | 0.0 | 0.00 | 2.01 | 0.00 | 88 | 1015.1 |
| 20260831082248 | 82 | 115 | 0.0 | 0.0 | 0.00 | 2.01 | 0.00 | 88 | 1015.3 |
| 20260831082205 | 82 | 115 | 0.0 | 0.0 | 0.00 | 2.01 | 0.00 | 88 | 1015.3 |
| 20260831081702 | 82 | 115 | 0.0 | 0.0 | 0.00 | 2.01 | 0.00 | 88 | 1015.3 |
| 20260831081200 | 82 | 115 | 0.0 | 0.0 | 0.00 | 2.01 | 0.00 | 88 | 1015.4 |
| 20260831080657 | 82 | 115 | 0.0 | 0.0 | 0.00 | 2.01 | 0.00 | 88 | 1015.4 |
| 20260831080215 | 82 | 115 | 0.0 | 0.0 | 0.00 | 2.01 | 0.00 | 88 | 1015.4 |
| 20260831075659 | 82 | 115 | 0.0 | 0.0 | 0.00 | 2.01 | 0.00 | 87 | 1015.3 |
| 20260831075134 | 82 | 115 | 0.0 | 0.0 | 0.00 | 2.01 | 0.00 | 87 | 1015.4 |
| 20260831074630 | 82 | 115 | 0.0 | 0.0 | 0.00 | 2.01 | 0.00 | 87 | 1015.3 |
| 20260831074147 | 82 | 115 | 0.0 | 0.0 | 0.00 | 2.01 | 0.00 | 87 | 1015.2 |
| 20260831073704 | 82 | 115 | 0.0 | 4.0 | 0.00 | 2.01 | 0.00 | 87 | 1015.2 |
| 20260831073220 | 82 | 115 | 1.0 | 4.0 | 0.00 | 2.01 | 0.00 | 87 | 1015.2 |
| 20260831072737 | 82 | 115 | 2.0 | 6.0 | 0.00 | 2.01 | 0.00 | 87 | 1015.3 |
| 20260831072151 | 82 | 115 | 3.0 | 6.0 | 0.00 | 2.01 | 0.00 | 88 | 1015.4 |
| 20260831071744 | 82 | 115 | 0.0 | 0.0 | 0.00 | 2.01 | 0.00 | 88 | 1015.5 |
| 20260831071641 | 82 | 115 | 0.0 | 0.0 | 0.00 | 2.01 | 0.00 | 88 | 1015.5 |
| 20260831071138 | 82 | 115 | 0.0 | 0.0 | 0.00 | 2.01 | 0.00 | 88 | 1015.5 |
| 20260831070655 | 82 | 115 | 0.0 | 4.0 | 0.00 | 2.01 | 0.00 | 88 | 1015.6 |
| 20260831070133 | 82 | 115 | 0.0 | 4.0 | 0.00 | 2.01 | 0.00 | 88 | 1015.6 |
| 20260831065642 | 82 | 115 | 1.0 | 7.0 | 0.00 | 2.01 | 0.00 | 88 | 1015.6 |
| 20260831065140 | 82 | 115 | 2.0 | 7.0 | 0.00 | 2.01 | 0.00 | 88 | 1015.6 |
| 20260831064641 | 82 | 115 | 1.0 | 4.0 | 0.00 | 2.01 | 0.00 | 88 | 1015.8 |
| 20260831064139 | 82 | 115 | 2.0 | 4.0 | 0.00 | 2.01 | 0.00 | 88 | 1015.8 |
| 20260831063634 | 82 | 115 | 1.0 | 4.0 | 0.00 | 2.01 | 0.00 | 88 | 1015.8 |
| 20260831063151 | 82 | 115 | 1.0 | 6.0 | 0.00 | 2.01 | 0.00 | 88 | 1015.8 |
| 20260831062707 | 82 | 115 | 2.0 | 6.0 | 0.00 | 2.01 | 0.00 | 88 | 1015.6 |
| 20260831062224 | 82 | 115 | 2.0 | 4.0 | 0.00 | 2.01 | 0.00 | 88 | 1015.6 |
| 20260831061640 | 82 | 115 | 0.0 | 4.0 | 0.00 | 2.01 | 0.00 | 88 | 1015.5 |
| 20260831061136 | 82 | 115 | 2.0 | 4.0 | 0.00 | 2.01 | 0.00 | 88 | 1015.8 |
| 20260831060655 | 82 | 115 | 2.0 | 6.0 | 0.00 | 2.01 | 0.00 | 88 | 1015.8 |
| 20260831060131 | 82 | 115 | 3.0 | 8.0 | 0.00 | 2.01 | 0.00 | 87 | 1016.0 |
| 20260831055642 | 82 | 115 | 4.0 | 8.0 | 0.00 | 2.01 | 0.00 | 87 | 1016.2 |
| 20260831055139 | 82 | 121 | 3.0 | 7.0 | 0.00 | 2.01 | 0.00 | 87 | 1016.3 |
| 20260831054638 | 82 | 121 | 2.0 | 9.0 | 0.00 | 2.01 | 0.00 | 88 | 1016.4 |
| 20260831054157 | 82 | 94 | 3.0 | 9.0 | 0.00 | 2.01 | 0.00 | 88 | 1016.5 |
| 20260831053713 | 81 | 94 | 4.0 | 9.0 | 0.00 | 2.01 | 0.00 | 89 | 1016.5 |
| 20260831053149 | 81 | 94 | 5.0 | 8.0 | 0.00 | 2.01 | 0.00 | 90 | 1016.6 |
| 20260831052645 | 81 | 94 | 3.0 | 6.0 | 0.00 | 2.01 | 0.00 | 90 | 1016.7 |
| 20260831052140 | 81 | 94 | 2.0 | 6.0 | 0.00 | 2.01 | 0.00 | 91 | 1016.7 |
| 20260831051637 | 81 | 94 | 2.0 | 6.0 | 0.00 | 2.01 | 0.00 | 91 | 1016.8 |
| 20260831051214 | 81 | 94 | 2.0 | 3.0 | 0.00 | 2.01 | 0.00 | 91 | 1016.9 |
| 20260831050630 | 81 | 94 | 1.0 | 3.0 | 0.00 | 2.01 | 0.00 | 91 | 1016.8 |
| 20260831050147 | 81 | 94 | 1.0 | 3.0 | 0.00 | 2.01 | 0.00 | 91 | 1016.8 |
| 20260831045655 | 81 | 94 | 0.0 | 0.0 | 0.00 | 2.01 | 0.00 | 91 | 1017.0 |
| 20260831045150 | 81 | 94 | 0.0 | 0.0 | 0.00 | 2.01 | 0.00 | 91 | 1017.1 |
| 20260831044727 | 81 | 94 | 0.0 | 0.0 | 0.00 | 2.01 | 0.00 | 91 | 1017.2 |
| 20260831044202 | 81 | 94 | 0.0 | 0.0 | 0.00 | 2.01 | 0.00 | 92 | 1017.2 |
| 20260831043700 | 81 | 94 | 0.0 | 0.0 | 0.00 | 2.01 | 0.00 | 92 | 1017.3 |
| 20260831043136 | 80 | 94 | 0.0 | 0.0 | 0.00 | 2.01 | 0.00 | 92 | 1017.2 |
| 20260831042749 | 80 | 94 | 0.0 | 0.0 | 0.00 | 2.01 | 0.00 | 92 | 1017.3 |
| 20260831042242 | 80 | 94 | 0.0 | 0.0 | 0.00 | 2.01 | 0.00 | 92 | 1017.3 |
| 20260831042200 | 80 | 94 | 0.0 | 0.0 | 0.00 | 2.01 | 0.00 | 92 | 1017.3 |
| 20260831041716 | 80 | 94 | 0.0 | 0.0 | 0.00 | 2.01 | 0.00 | 92 | 1017.2 |
| 20260831041131 | 80 | 94 | 0.0 | 0.0 | 0.00 | 2.01 | 0.00 | 92 | 1017.1 |
| 20260831040628 | 80 | 94 | 0.0 | 0.0 | 0.00 | 2.01 | 0.00 | 92 | 1017.0 |
| 20260831040206 | 80 | 94 | 0.0 | 0.0 | 0.00 | 2.01 | 2.01 | 92 | 1017.1 |
| 20260831035734 | 80 | 94 | 0.0 | 0.0 | 0.00 | 2.01 | 2.01 | 92 | 1017.1 |
| 20260831035248 | 80 | 94 | 0.0 | 0.0 | 0.00 | 2.01 | 2.01 | 92 | 1017.0 |
| 20260831034705 | 80 | 94 | 0.0 | 0.0 | 0.00 | 2.01 | 2.01 | 92 | 1017.2 |
| 20260831034201 | 79 | 94 | 0.0 | 0.0 | 0.00 | 2.01 | 2.01 | 92 | 1017.3 |
| 20260831033718 | 79 | 94 | 0.0 | 0.0 | 0.00 | 2.01 | 2.01 | 92 | 1017.3 |
| 20260831033636 | 79 | 94 | 0.0 | 0.0 | 0.00 | 2.01 | 2.01 | 92 | 1017.3 |
| 20260831033228 | 79 | 94 | 0.0 | 0.0 | 0.00 | 2.01 | 2.01 | 92 | 1017.2 |
| 20260831032628 | 79 | 94 | 0.0 | 0.0 | 0.00 | 2.01 | 2.01 | 92 | 1017.4 |
| 20260831032222 | 79 | 94 | 0.0 | 0.0 | 0.00 | 2.01 | 2.01 | 92 | 1017.3 |
| 20260831031635 | 79 | 94 | 0.0 | 0.0 | 0.00 | 2.01 | 2.01 | 92 | 1017.3 |
| 20260831031135 | 79 | 94 | 0.0 | 0.0 | 0.00 | 2.01 | 2.01 | 92 | 1017.4 |
| 20260831030749 | 79 | 94 | 0.0 | 0.0 | 0.00 | 2.01 | 2.01 | 92 | 1017.4 |
| 20260831030645 | 79 | 94 | 0.0 | 0.0 | 0.00 | 2.01 | 2.01 | 92 | 1017.4 |
| 20260831030142 | 79 | 94 | 0.0 | 0.0 | 0.00 | 2.01 | 2.01 | 92 | 1017.4 |
| 20260831025651 | 79 | 94 | 0.0 | 0.0 | 0.00 | 2.01 | 2.01 | 92 | 1017.4 |
| 20260831025128 | 79 | 94 | 0.0 | 0.0 | 0.00 | 2.01 | 2.01 | 93 | 1017.4 |
| 20260831024630 | 79 | 94 | 0.0 | 4.0 | 0.00 | 2.01 | 2.01 | 93 | 1017.1 |
| 20260831024204 | 78 | 94 | 1.0 | 4.0 | 0.00 | 2.01 | 2.01 | 93 | 1017.2 |
| 20260831023722 | 78 | 94 | 2.0 | 4.0 | 0.00 | 2.01 | 2.01 | 94 | 1017.2 |
| 20260831023137 | 78 | 94 | 1.0 | 2.0 | 0.00 | 2.01 | 2.01 | 94 | 1017.2 |
| 20260831022639 | 78 | 94 | 0.0 | 2.0 | 0.00 | 2.01 | 2.01 | 94 | 1017.2 |
| 20260831022156 | 78 | 94 | 0.0 | 0.0 | 0.00 | 2.01 | 2.01 | 93 | 1017.1 |
| 20260831021633 | 78 | 94 | 0.0 | 0.0 | 0.00 | 2.01 | 2.01 | 93 | 1017.2 |
| 20260831021247 | 78 | 94 | 0.0 | 0.0 | 0.00 | 2.01 | 2.01 | 93 | 1017.2 |
| 20260831021205 | 78 | 94 | 0.0 | 0.0 | 0.00 | 2.01 | 2.01 | 93 | 1017.2 |
| 20260831020642 | 78 | 94 | 0.0 | 0.0 | 0.00 | 2.01 | 2.01 | 93 | 1017.2 |
| 20260831020200 | 78 | 94 | 0.0 | 0.0 | 0.00 | 2.01 | 2.01 | 93 | 1017.3 |
| 20260831015630 | 78 | 94 | 0.0 | 0.0 | 0.00 | 2.01 | 2.01 | 92 | 1017.3 |
| 20260831015223 | 78 | 94 | 0.0 | 0.0 | 0.00 | 2.01 | 2.01 | 92 | 1017.4 |
| 20260831014636 | 78 | 94 | 0.0 | 0.0 | 0.00 | 2.01 | 2.01 | 92 | 1017.3 |
| 20260831014137 | 78 | 94 | 0.0 | 0.0 | 0.00 | 2.01 | 2.01 | 92 | 1017.3 |
| 20260831013750 | 78 | 94 | 0.0 | 1.0 | 0.00 | 2.01 | 2.01 | 92 | 1017.2 |
| 20260831013646 | 78 | 94 | 0.0 | 1.0 | 0.00 | 2.01 | 2.01 | 92 | 1017.2 |
| 20260831013141 | 78 | 94 | 0.0 | 4.0 | 0.00 | 2.01 | 2.01 | 92 | 1017.3 |
| 20260831012638 | 78 | 94 | 1.0 | 4.0 | 0.00 | 2.01 | 2.01 | 92 | 1017.2 |
| 20260831012156 | 78 | 94 | 1.0 | 3.0 | 0.00 | 2.01 | 2.01 | 92 | 1017.2 |
| 20260831011654 | 78 | 94 | 1.0 | 6.0 | 0.00 | 2.01 | 2.01 | 93 | 1017.2 |
| 20260831011131 | 78 | 94 | 2.0 | 7.0 | 0.00 | 2.01 | 2.01 | 93 | 1017.2 |
| 20260831010632 | 78 | 94 | 2.0 | 8.0 | 0.00 | 2.01 | 2.01 | 93 | 1017.2 |
| 20260831010151 | 78 | 94 | 4.0 | 9.0 | 0.00 | 2.01 | 2.01 | 94 | 1017.2 |
| 20260831005639 | 78 | 94 | 3.0 | 6.0 | 0.00 | 2.01 | 2.01 | 95 | 1017.3 |
| 20260831005212 | 78 | 94 | 2.0 | 9.0 | 0.00 | 2.01 | 2.01 | 95 | 1017.2 |
| 20260831004630 | 78 | 94 | 4.0 | 9.0 | 0.00 | 2.01 | 2.01 | 95 | 1017.2 |
| 20260831004205 | 78 | 94 | 3.0 | 4.0 | 0.01 | 2.01 | 2.01 | 95 | 1017.1 |
| 20260831003645 | 78 | 94 | 1.0 | 6.0 | 0.01 | 2.01 | 2.01 | 96 | 1017.2 |
| 20260831003158 | 77 | 94 | 2.0 | 4.0 | 0.01 | 2.01 | 2.01 | 96 | 1017.0 |
| 20260831002639 | 77 | 94 | 2.0 | 4.0 | 0.01 | 2.01 | 2.01 | 95 | 1017.1 |
| 20260831002137 | 77 | 94 | 0.0 | 0.0 | 0.01 | 2.01 | 2.01 | 95 | 1017.0 |
| 20260831001654 | 77 | 94 | 0.0 | 7.0 | 0.01 | 2.01 | 2.01 | 95 | 1016.9 |
| 20260831001247 | 77 | 94 | 1.0 | 7.0 | 0.02 | 2.01 | 2.01 | 95 | 1016.9 |
| 20260831001143 | 77 | 94 | 1.0 | 7.0 | 0.02 | 2.01 | 2.01 | 95 | 1016.9 |
| 20260831000641 | 77 | 94 | 2.0 | 6.0 | 0.03 | 2.01 | 2.01 | 95 | 1016.8 |
| 20260831000218 | 77 | 94 | 2.0 | 6.0 | 0.03 | 2.01 | 2.01 | 95 | 1016.8 |
| 20260830235703 | 77 | 94 | 3.0 | 6.0 | 0.05 | 2.01 | 2.01 | 95 | 1016.8 |
| 20260830235159 | 77 | 94 | 3.0 | 6.0 | 0.13 | 2.01 | 2.01 | 95 | 1016.9 |
| 20260830234656 | 76 | 94 | 0.0 | 0.0 | 0.39 | 2.01 | 2.01 | 95 | 1016.9 |
| 20260830234233 | 76 | 94 | 0.0 | 0.0 | 0.60 | 2.00 | 2.00 | 95 | 1016.9 |
| 20260830234130 | 76 | 94 | 0.0 | 0.0 | 0.60 | 2.00 | 2.00 | 95 | 1016.9 |
| 20260830233708 | 76 | 94 | 0.0 | 4.0 | 0.88 | 2.00 | 2.00 | 95 | 1017.0 |
| 20260830233146 | 76 | 94 | 1.0 | 7.0 | 1.20 | 2.00 | 2.00 | 95 | 1017.0 |
| 20260830232704 | 76 | 94 | 3.0 | 7.0 | 1.48 | 2.00 | 2.00 | 95 | 1017.1 |
| 20260830232141 | 75 | 94 | 2.0 | 7.0 | 1.74 | 2.00 | 2.00 | 94 | 1017.0 |
| 20260830231638 | 75 | 94 | 3.0 | 7.0 | 1.90 | 2.00 | 2.00 | 94 | 1016.9 |
| 20260830231234 | 75 | 94 | 3.0 | 7.0 | 1.97 | 1.99 | 1.99 | 94 | 1016.7 |
| 20260830230647 | 75 | 275 | 2.0 | 10.0 | 1.97 | 1.98 | 1.98 | 94 | 1016.6 |
| 20260830230144 | 75 | 261 | 4.0 | 10.0 | 1.98 | 1.98 | 1.98 | 93 | 1016.8 |
| 20260830225652 | 75 | 244 | 0.0 | 11.0 | 1.96 | 1.96 | 1.96 | 92 | 1017.2 |
| 20260830225146 | 76 | 247 | 2.0 | 15.0 | 1.86 | 1.86 | 1.86 | 92 | 1017.5 |
| 20260830224723 | 78 | 271 | 4.0 | 8.0 | 1.59 | 1.59 | 1.59 | 91 | 1017.6 |
| 20260830224158 | 78 | 326 | 3.0 | 4.0 | 1.37 | 1.37 | 1.37 | 93 | 1017.6 |
| 20260830223635 | 79 | 226 | 1.0 | 8.0 | 1.08 | 1.08 | 1.10 | 92 | 1018.0 |
| 20260830223132 | 79 | 224 | 4.0 | 8.0 | 0.78 | 0.78 | 0.78 | 91 | 1017.9 |
| 20260830222710 | 80 | 255 | 4.0 | 8.0 | 0.48 | 0.48 | 0.48 | 90 | 1017.5 |
| 20260830222147 | 81 | 264 | 3.0 | 7.0 | 0.25 | 0.25 | 0.25 | 89 | 1017.4 |
| 20260830221706 | 82 | 193 | 4.0 | 7.0 | 0.10 | 0.10 | 0.10 | 88 | 1017.1 |
| 20260830221142 | 83 | 230 | 4.0 | 10.0 | 0.02 | 0.02 | 0.02 | 86 | 1016.8 |
| 20260830220638 | 84 | 175 | 3.0 | 10.0 | 0.01 | 0.01 | 0.01 | 83 | 1016.6 |
| 20260830220135 | 85 | 236 | 0.0 | 5.0 | 0.00 | 0.00 | 0.00 | 82 | 1016.5 |
| 20260830215641 | 85 | 252 | 3.0 | 9.0 | 0.00 | 0.00 | 0.00 | 80 | 1016.3 |
| 20260830215159 | 86 | 251 | 3.0 | 9.0 | 0.00 | 0.00 | 0.00 | 81 | 1016.4 |
| 20260830214656 | 86 | 111 | 2.0 | 7.0 | 0.00 | 0.00 | 0.00 | 81 | 1016.4 |
| 20260830214133 | 86 | 106 | 5.0 | 9.0 | 0.00 | 0.00 | 0.00 | 81 | 1016.3 |
| 20260830213710 | 86 | 78 | 4.0 | 8.0 | 0.00 | 0.00 | 0.00 | 81 | 1016.2 |
| 20260830213628 | 86 | 78 | 4.0 | 8.0 | 0.00 | 0.00 | 0.00 | 81 | 1016.2 |
| 20260830213145 | 87 | 89 | 4.0 | 7.0 | 0.00 | 0.00 | 0.00 | 81 | 1016.2 |
| 20260830212641 | 87 | 79 | 2.0 | 6.0 | 0.00 | 0.00 | 0.00 | 81 | 1016.4 |
| 20260830212158 | 87 | 355 | 3.0 | 9.0 | 0.00 | 0.00 | 0.00 | 80 | 1016.3 |
| 20260830211734 | 87 | 87 | 4.0 | 9.0 | 0.00 | 0.00 | 0.00 | 80 | 1016.2 |
| 20260830211229 | 87 | 84 | 2.0 | 6.0 | 0.00 | 0.00 | 0.00 | 81 | 1016.2 |
| 20260830210702 | 87 | 58 | 2.0 | 7.0 | 0.00 | 0.00 | 0.00 | 80 | 1016.2 |
| 20260830210218 | 87 | 80 | 4.0 | 9.0 | 0.00 | 0.00 | 0.00 | 80 | 1016.3 |
| 20260830205704 | 88 | 102 | 3.0 | 10.0 | 0.00 | 0.00 | 0.00 | 80 | 1016.0 |
| 20260830205141 | 88 | 93 | 5.0 | 10.0 | 0.00 | 0.00 | 0.00 | 79 | 1016.1 |
| 20260830204659 | 88 | 110 | 3.0 | 10.0 | 0.00 | 0.00 | 0.00 | 79 | 1016.1 |
| 20260830204155 | 88 | 108 | 5.0 | 10.0 | 0.00 | 0.00 | 0.00 | 78 | 1016.2 |
| 20260830203732 | 88 | 88 | 7.0 | 10.0 | 0.00 | 0.00 | 0.00 | 77 | 1016.4 |
| 20260830203147 | 88 | 101 | 4.0 | 10.0 | 0.00 | 0.00 | 0.00 | 78 | 1016.5 |
| 20260830202645 | 88 | 81 | 4.0 | 10.0 | 0.00 | 0.00 | 0.00 | 77 | 1016.4 |
| 20260830202142 | 88 | 45 | 5.0 | 11.0 | 0.00 | 0.00 | 0.00 | 78 | 1016.3 |
| 20260830201700 | 88 | 156 | 6.0 | 10.0 | 0.00 | 0.00 | 0.00 | 77 | 1016.0 |
| 20260830201218 | 88 | 115 | 7.0 | 10.0 | 0.00 | 0.00 | 0.00 | 78 | 1015.9 |
| 20260830200634 | 88 | 101 | 5.0 | 10.0 | 0.00 | 0.00 | 0.00 | 78 | 1016.2 |
| 20260830200212 | 88 | 102 | 6.0 | 10.0 | 0.00 | 0.02 | 0.00 | 76 | 1016.4 |
| 20260830195714 | 88 | 71 | 5.0 | 8.0 | 0.00 | 0.02 | 0.00 | 78 | 1016.6 |
| 20260830195632 | 88 | 71 | 5.0 | 8.0 | 0.00 | 0.02 | 0.00 | 78 | 1016.6 |
| 20260830195228 | 88 | 164 | 5.0 | 10.0 | 0.00 | 0.02 | 0.00 | 77 | 1016.5 |
| 20260830194641 | 88 | 121 | 4.0 | 10.0 | 0.00 | 0.02 | 0.00 | 77 | 1016.6 |
| 20260830194139 | 88 | 107 | 5.0 | 12.0 | 0.00 | 0.02 | 0.00 | 77 | 1016.6 |
| 20260830193716 | 88 | 104 | 7.0 | 12.0 | 0.00 | 0.02 | 0.00 | 75 | 1016.6 |
| 20260830193132 | 89 | 135 | 4.0 | 11.0 | 0.00 | 0.02 | 0.00 | 75 | 1016.6 |
| 20260830192650 | 89 | 80 | 4.0 | 12.0 | 0.00 | 0.02 | 0.00 | 75 | 1016.6 |
| 20260830192147 | 89 | 60 | 6.0 | 12.0 | 0.00 | 0.02 | 0.00 | 76 | 1016.6 |
| 20260830191704 | 89 | 128 | 6.0 | 11.0 | 0.00 | 0.02 | 0.00 | 76 | 1016.7 |